THORAD AGENA D DEB, 14469

Orbit data source: Space-Track

THORAD AGENA D DEB, 14469 is space debris in SSO originally from a launch on Wed, 08 Apr 1970 UTC launched from the Air Force Western Test Range (AFWTR). Debris objects in space refer to the collection of defunct objects orbiting the Earth. Examples of debris include non-operational satellites, rocket bodies, and fragments generated from explosions, collisions, or faulty payload assembly.

Loading next visibility...
Identifier
14469, 1970-025NV
Orbit
SSO
Country
Flag of USUS
Related business
Manufacturer
Unknown
Mission
Spacecraft
Bus & Motor
Unknown
Mass
Unknown
Launch date (UTC)
1970-04-08 (56 years ago)
Launch vehicle
Unknown
Launch site
Air Force Western Test Range (AFWTR)
Object type
Payload
Rocket body
Debris
Shape & HBR
Unknown shape, 1.1 m
Radar Cross Section
Small (<0.1 m²)

Expand to show TLE details & history
Last TLE update: 3 days ago

TLE from 3 days ago
0 THORAD AGENA D DEB
1 14469U 70025NV  25346.71928837 -.00000149  00000-0 -24344-3 0  9999
2 14469 101.6073 256.0729 0269985 192.7942 228.2641 13.07368091121544
Epoch: 2025-12-12T17:15Z
TLE epoch observation values (Epoch: 2025-12-12T17:15:46.515Z)
Latitude
57.01146°
Longitude
-102.88075°
Altitude
1,382.567 km
Speed
7.107 km/s
True Right ascension
15h 50m 52s
True Declination
56° 52' 01"
Sunlit
Object was in daylight at epoch
Visualization orbit readout
Latitude
Unknown
Longitude
Unknown
Altitude
Unknown
Speed
Unknown
Apparent Right ascension
Unknown
Apparent Declination
Unknown
Sunlit
N/A
Visualization observer readout
Local Sidereal Time
23:41:42
Azimuth
Unknown
Elevation
Unknown
Doppler factor
Unknown
Orbital elements
Apogee altitude
1,436.248 km
Perigee altitude
1,025.388 km
Semi-major axis
7,608.955 km
Eccentricity
0.027
Inclination
101.6073°
RAAN
256.0729°
Arg. of periapsis
192.7942°
True anomaly
226.00679°
Mean anomaly
228.2641°
Eccentric anomaly
227.13037°
Mean motion
3.27006 °/min
Orbital period
110.09 mins
BSTAR
-0.00024344
Loading maneuver chart data...
Computing Atmospheric mass density...

Documentation

Showing up to 5 results
|